Location: Plymouth
(43.7490°N, 87.9770°W)
Time: 09:00:51
(UTC-05:00)

Daily predictions for brighter satellites

Satellite Brightness Start Highest point End
(mag) Time Altitude Azimuth Time Altitude Azimuth Time Altitude Azimuth
Resurs 01 Rocket 2.3 19:06:10 10° SE 19:10:11 34° ENE 19:14:13 10° N
Okean 3 Rocket 3.8 19:06:03 10° N 19:10:33 56° E 19:15:01 10° SSE
NOSS 3-2 (A) 4.0 19:05:32 10° S 19:11:01 37° ESE 19:16:55 10° NE
Cosmos 2333 Rocket 2.5 19:06:04 10° SSW 19:11:50 79° WNW 19:17:38 10° NNE
SAR-Lupe-4 3.5 19:08:24 10° SSE 19:11:58 74° ENE 19:15:33 10° N
Cosmos 292 Rocket 3.7 19:07:25 10° SSW 19:12:12 74° ESE 19:17:02 10° NNE
CZ-2C R/B 4.3 19:07:38 10° SSW 19:12:13 36° W 19:16:41 10° NNW
Resurs 1-3 4.5 19:10:29 10° SE 19:14:16 29° ENE 19:18:05 10° N
USA 238 DEB 3.8 19:08:41 10° SSW 19:15:45 88° SE 19:22:50 10° NE
USA 238 3.8 19:08:46 10° SSW 19:15:51 87° ESE 19:22:56 10° NE
Cosmos 1484 Rocket 3.5 19:15:36 10° S 19:19:21 58° W 19:23:12 10° NNW
Spot 1 4.4 19:15:45 10° SSE 19:20:24 53° ENE 19:24:48 10° N
Atlas Centaur 2 4.3 19:13:47 10° WSW 19:20:54 30° S 19:27:36 10° SE
ATLAS CENTAUR R/B 1.5 19:18:22 10° NW 19:22:39 79° WSW 19:26:34 10° SSE
BREEZE-M DEB (TANK) 4.5 19:20:29 10° WNW 19:23:43 45° SSW 19:32:56 10° SE
ALOS 3.0 19:27:52 10° SE 19:32:01 33° ENE 19:36:10 10° N
Cosmos 1437 3.2 19:30:40 10° NNW 19:33:56 67° W 19:37:10 10° S
Cosmos 1766 3.2 19:34:53 10° S 19:38:48 70° E 19:42:47 10° NNE
FREGAT/IRIS 2.9 19:36:32 10° S 19:39:37 74° W 19:42:43 10° NNW
Spot 2 Rocket 3.4 19:34:52 10° SSE 19:39:53 72° ENE 19:44:55 10° N
Cosmos 2237 Rocket 3.0 19:34:42 10° SW 19:40:17 57° WNW 19:45:54 10° NNE
NOSS 3-3 (A) 4.5 19:33:05 10° NW 19:40:29 71° NE 19:48:22 10° SE
NOSS 3-3 (C) 4.5 19:33:11 10° NW 19:40:34 70° NE 19:48:28 10° SE
Cosmos 2056 Rocket 3.8 19:35:18 10° NNW 19:40:45 77° WSW 19:46:10 10° SSE
NOAA 12 4.3 19:37:20 10° S 19:42:35 75° WSW 19:47:53 10° NNW
COSMO-SKYMED 1 4.3 19:40:09 10° N 19:44:10 37° WNW 19:48:10 10° SW
NOSS 3-2 (C) 3.6 19:41:58 10° SSW 19:47:50 53° ESE 19:54:12 10° NE
Helios 1A 2.9 19:43:46 10° SSE 19:47:55 75° ENE 19:52:08 10° N
CZ-4C R/B 3.0 19:43:46 10° SW 19:49:03 54° NW 19:55:03 10° NNE
ASTEX 1 4.0 19:46:59 10° NNE 19:51:27 34° E 19:55:52 10° SSE
CENTAUR R/B 4.2 19:48:38 10° SE 19:48:52 11° SE 19:48:52 11° SE
ATLAS 5 CENTAUR R/B 2.2 19:47:35 10° S 19:52:01 40° ESE 19:56:49 10° NE
CZ-2D R/B 3.8 19:52:08 17° SE 19:54:48 39° ENE 19:58:28 10° N
Cosmos 1953 2.5 19:51:25 10° SSE 19:55:16 48° E 19:59:07 10° NNE
SL-16 R/B 2.2 19:53:06 10° SSW 19:58:48 88° WNW 20:04:32 10° NNE
Aureole 2 Rocket 3.2 19:56:28 10° SSW 20:00:52 74° WNW 20:05:11 10° NNE
Cosmos 2034 Rocket 3.9 19:57:25 10° S 20:03:37 71° E 20:09:56 10° NNE
USA 186 3.6 20:06:04 12° NNE 20:06:04 12° NNE 20:06:19 10° NNE
Cosmos 1766 Rocket 3.5 20:01:47 10° N 20:06:12 88° WSW 20:10:32 10° S
Cosmos 1464 Rocket 4.1 20:00:34 10° S 20:06:51 83° W 20:13:04 10° N
Cosmos 1805 3.1 20:08:22 10° S 20:12:17 77° E 20:16:14 10° N
H-2A R/B 4.3 20:14:39 12° NE 20:14:39 12° NE 20:15:40 10° NNE
H-2A R/B 2.7 20:12:11 23° SSE 20:14:30 67° ENE 20:18:23 10° N
Cosmos 724 4.4 20:08:51 10° S 20:14:32 51° ESE 20:20:24 10° NE
Meteor 1-29 3.4 20:12:45 10° N 20:16:16 65° WNW 20:19:43 10° SSW
USA 215 3.4 20:16:27 10° NE 20:23:00 77° NW 20:29:31 10° WSW
Cosmos 1346 3.1 20:24:22 10° N 20:27:00 66° N 20:27:00 66° N
Cosmos 1544 2.9 20:24:10 10° S 20:27:53 81° E 20:31:40 10° N
FENGYUN 3A 3.8 20:26:41 10° S 20:32:02 72° WSW 20:37:26 10° NNW
Cosmos 1470 4.0 20:34:27 28° NNE 20:34:27 28° NNE 20:36:32 10° NNE
Cosmos-2242 3.3 20:29:00 10° SSW 20:33:20 69° W 20:37:44 10° N
ERS-1 Rocket 3.3 20:34:40 42° E 20:35:04 42° ENE 20:39:48 10° N
Helios 1B rocket 4.0 20:31:28 10° N 20:35:16 37° WNW 20:39:03 10° SW
Cosmos 1758 4.1 20:32:04 10° SSW 20:36:04 54° W 20:40:06 10° N
Cosmos 1452 Rocket 4.1 20:32:21 10° NNW 20:37:31 56° WSW 20:41:52 14° S
Cosmos 1842 Rocket 3.4 20:39:27 64° ESE 20:39:41 66° E 20:44:00 10° NNE
Cosmos 1500 Rocket 3.4 20:36:32 10° N 20:40:58 77° E 20:41:42 60° SSE
SeaSat 1 2.3 20:36:32 10° NNE 20:41:30 72° ESE 20:46:25 10° SSW
Cosmos 2369 Rocket 2.5 20:37:27 10° NNW 20:42:54 47° ENE 20:43:35 44° E
Cosmos 1603 3.6 20:40:07 10° SSW 20:45:51 86° ESE 20:51:39 10° NNE
Resurs 01 Rocket 3.9 20:43:06 10° SSW 20:46:42 24° W 20:50:21 10° NW
Cosmos 839 Rocket 4.5 20:39:30 10° NNW 20:47:23 57° NE 20:49:19 43° E
Cosmos 2151 3.9 20:48:39 10° N 20:51:24 36° NNE 20:51:24 36° NNE
Cosmos 1943 Rocket 3.3 20:49:28 10° N 20:53:53 27° NE 20:53:53 27° NE
Cosmos 1939 Rocket 4.1 21:00:35 34° N 21:00:35 34° N 21:02:59 10° N
Cosmos 1420 Rocket 4.4 20:56:21 10° NNW 21:01:35 63° WSW 21:03:18 41° SSW
NOSS 3-2 (A) 4.5 20:55:46 10° WSW 21:01:42 47° NW 21:08:13 10° NNE
Meteor 1-11 4.3 20:57:20 10° N 21:02:51 57° ENE 21:02:51 57° ENE
Exosat Rocket 4.5 20:57:59 10° NNW 21:04:21 63° ENE 21:06:20 49° ESE
Cosmos 1674 3.7 21:03:46 10° NNW 21:07:21 46° W 21:07:21 46° W
ALOS 4.2 21:05:29 10° SSW 21:09:27 27° W 21:13:27 10° NW
Cosmos 1655 Rocket 3.8 21:06:18 10° N 21:12:31 68° E 21:12:38 68° E
Cosmos 1269 Rocket 4.4 21:10:12 10° SSW 21:15:25 61° WNW 21:20:40 10° NNE
GP-B 3.7 21:12:22 10° N 21:16:39 56° W 21:16:39 56° W
Cosmos 2279 Rocket 4.4 21:20:11 48° NE 21:20:11 48° NE 21:24:49 10° NNE
H-2A R/B 4.3 21:24:25 13° NNE 21:24:25 13° NNE 21:25:15 10° NNE
Cosmos 1048 Rocket 4.4 21:16:53 10° SSW 21:22:09 62° WNW 21:27:22 10° NNE
BREEZE-M DEB (TANK) 4.2 21:16:22 10° W 21:26:07 55° NNW 21:26:53 50° NNE
Envisat 3.4 21:30:15 62° NW 21:30:15 62° NW 21:34:39 10° NNW
ATLAS 5 CENTAUR R/B 3.5 21:32:21 10° WSW 21:36:48 33° NW 21:41:36 10° NNE
Cosmos 1634 Rocket 4.5 21:33:48 23° SSW 21:37:43 58° WNW 21:43:51 10° N
Cosmos 2026 Rocket 4.0 21:32:59 10° NNW 21:39:01 69° W 21:39:13 69° WSW
Terra 4.5 21:43:33 10° NNE 21:43:33 10° NNE 21:43:36 10° NNE
CENTAUR R/B 4.3 21:35:12 10° SSW 21:47:41 12° NE 21:48:14 10° NE
UNK 4.3 21:30:24 10° WNW 21:46:58 70° NNE 21:47:08 70° NNE
H-2A R/B 4.2 21:51:48 23° NNW 21:51:48 23° NNW 21:53:34 10° NNW
Cosmos 2369 Rocket 4.0 22:21:58 10° NW 22:25:24 25° W 22:25:24 25° W
Cosmos 1943 Rocket 4.1 22:32:51 10° NW 22:35:24 26° NW 22:35:24 26° NW
